owner,sensor,date,latitude,longitude,vertical_datum,wind_speed,wind_to_direction,wind_speed_of_gust,qcFlag 
ADCP,ioos:station:wmo:42395:2,2016-10-01T00:00:00Z,26.4040,-90.7920,3.0,4.9,34.0,6.5, 
ADCP,ioos:station:wmo:42395:2,2016-10-01T00:20:00Z,26.4040,-90.7920,3.0,4.9,34.0,6.9, 
ADCP,ioos:station:wmo:42395:2,2016-10-01T00:40:00Z,26.4040,-90.7920,3.0,4.8,34.0,6.1, 
ADCP,ioos:station:wmo:42395:2,2016-10-01T01:00:00Z,26.4040,-90.7920,3.0,5.0,42.0,6.5, 
ADCP,ioos:station:wmo:42395:2,2016-10-01T01:20:00Z,26.4040,-90.7920,3.0,4.3,36.0,6.6, 
ADCP,ioos:station:wmo:42395:2,2016-10-01T01:40:00Z,26.4040,-90.7920,3.0,3.5,37.0,5.4, 
ADCP,ioos:station:wmo:42395:2,2016-10-01T02:00:00Z,26.4040,-90.7920,3.0,3.5,51.0,5.1, 
ADCP,ioos:station:wmo:42395:2,2016-10-01T02:20:00Z,26.4040,-90.7920,3.0,3.6,49.0,6.1, 
ADCP,ioos:station:wmo:42395:2,2016-10-01T02:40:00Z,26.4040,-90.7920,3.0,4.1,58.0,6.3, 
ADCP,ioos:station:wmo:42395:2,2016-10-01T03:00:00Z,26.4040,-90.7920,3.0,4.2,70.0,5.9, 
ADCP,ioos:station:wmo:42395:2,2016-10-01T03:20:00Z,26.4040,-90.7920,3.0,3.9,78.0,5.5, 
ADCP,ioos:station:wmo:42395:2,2016-10-01T03:40:00Z,26.4040,-90.7920,3.0,3.8,70.0,5.4, 
ADCP,ioos:station:wmo:42395:2,2016-10-01T04:00:00Z,26.4040,-90.7920,3.0,4.0,79.0,5.5, 
ADCP,ioos:station:wmo:42395:2,2016-10-01T04:20:00Z,26.4040,-90.7920,3.0,4.3,73.0,6.3, 
ADCP,ioos:station:wmo:42395:2,2016-10-01T04:40:00Z,26.4040,-90.7920,3.0,3.4,72.0,4.8, 
ADCP,ioos:station:wmo:42395:2,2016-10-01T05:00:00Z,26.4040,-90.7920,3.0,3.8,72.0,5.6, 
ADCP,ioos:station:wmo:42395:2,2016-10-01T05:20:00Z,26.4040,-90.7920,3.0,4.4,77.0,6.4, 
ADCP,ioos:station:wmo:42395:2,2016-10-01T05:40:00Z,26.4040,-90.7920,3.0,5.4,77.0,7.0, 
ADCP,ioos:station:wmo:42395:2,2016-10-01T06:00:00Z,26.4040,-90.7920,3.0,5.2,78.0,6.5, 
ADCP,ioos:station:wmo:42395:2,2016-10-01T06:20:00Z,26.4040,-90.7920,3.0,5.1,72.0,7.3, 
ADCP,ioos:station:wmo:42395:2,2016-10-01T06:40:00Z,26.4040,-90.7920,3.0,4.9,65.0,6.5, 
ADCP,ioos:station:wmo:42395:2,2016-10-01T07:00:00Z,26.4040,-90.7920,3.0,4.5,71.0,6.1, 
ADCP,ioos:station:wmo:42395:2,2016-10-01T07:20:00Z,26.4040,-90.7920,3.0,4.9,73.0,6.7, 
ADCP,ioos:station:wmo:42395:2,2016-10-01T07:40:00Z,26.4040,-90.7920,3.0,5.2,67.0,7.2, 
ADCP,ioos:station:wmo:42395:2,2016-10-01T08:00:00Z,26.4040,-90.7920,3.0,5.5,66.0,8.1, 
ADCP,ioos:station:wmo:42395:2,2016-10-01T08:20:00Z,26.4040,-90.7920,3.0,4.9,82.0,6.5, 
ADCP,ioos:station:wmo:42395:2,2016-10-01T08:40:00Z,26.4040,-90.7920,3.0,3.5,75.0,5.7, 
ADCP,ioos:station:wmo:42395:2,2016-10-01T09:00:00Z,26.4040,-90.7920,3.0,5.0,77.0,6.5, 
ADCP,ioos:station:wmo:42395:2,2016-10-01T09:20:00Z,26.4040,-90.7920,3.0,4.9,74.0,6.3, 
ADCP,ioos:station:wmo:42395:2,2016-10-01T09:40:00Z,26.4040,-90.7920,3.0,5.5,79.0,8.1, 
ADCP,ioos:station:wmo:42395:2,2016-10-01T10:00:00Z,26.4040,-90.7920,3.0,7.6,79.0,10.2, 
ADCP,ioos:station:wmo:42395:2,2016-10-01T10:20:00Z,26.4040,-90.7920,3.0,7.1,73.0,9.0, 
ADCP,ioos:station:wmo:42395:2,2016-10-01T10:40:00Z,26.4040,-90.7920,3.0,7.4,66.0,10.3, 
ADCP,ioos:station:wmo:42395:2,2016-10-01T11:00:00Z,26.4040,-90.7920,3.0,7.0,74.0,9.3, 
ADCP,ioos:station:wmo:42395:2,2016-10-01T11:20:00Z,26.4040,-90.7920,3.0,7.3,63.0,9.8, 
ADCP,ioos:station:wmo:42395:2,2016-10-01T11:40:00Z,26.4040,-90.7920,3.0,7.2,56.0,9.3, 
ADCP,ioos:station:wmo:42395:2,2016-10-01T12:00:00Z,26.4040,-90.7920,3.0,7.3,55.0,9.2, 
ADCP,ioos:station:wmo:42395:2,2016-10-01T12:20:00Z,26.4040,-90.7920,3.0,8.1,58.0,10.0, 
ADCP,ioos:station:wmo:42395:2,2016-10-01T12:40:00Z,26.4040,-90.7920,3.0,8.4,48.0,10.4, 
ADCP,ioos:station:wmo:42395:2,2016-10-01T13:00:00Z,26.4040,-90.7920,3.0,8.5,54.0,11.5, 
ADCP,ioos:station:wmo:42395:2,2016-10-01T13:20:00Z,26.4040,-90.7920,3.0,9.4,55.0,12.2, 
ADCP,ioos:station:wmo:42395:2,2016-10-01T13:40:00Z,26.4040,-90.7920,3.0,9.0,46.0,11.1, 
ADCP,ioos:station:wmo:42395:2,2016-10-01T14:00:00Z,26.4040,-90.7920,3.0,7.0,50.0,8.7, 
ADCP,ioos:station:wmo:42395:2,2016-10-01T14:20:00Z,26.4040,-90.7920,3.0,6.7,51.0,8.7, 
ADCP,ioos:station:wmo:42395:2,2016-10-01T14:40:00Z,26.4040,-90.7920,3.0,7.7,45.0,9.5, 
ADCP,ioos:station:wmo:42395:2,2016-10-01T15:00:00Z,26.4040,-90.7920,3.0,8.3,49.0,10.1, 
ADCP,ioos:station:wmo:42395:2,2016-10-01T15:20:00Z,26.4040,-90.7920,3.0,7.3,58.0,9.1, 
ADCP,ioos:station:wmo:42395:2,2016-10-01T15:40:00Z,26.4040,-90.7920,3.0,8.2,64.0,11.1, 
ADCP,ioos:station:wmo:42395:2,2016-10-01T16:00:00Z,26.4040,-90.7920,3.0,9.6,56.0,11.7, 
ADCP,ioos:station:wmo:42395:2,2016-10-01T16:20:00Z,26.4040,-90.7920,3.0,9.2,58.0,11.4, 
ADCP,ioos:station:wmo:42395:2,2016-10-01T16:40:00Z,26.4040,-90.7920,3.0,8.6,54.0,10.4, 
ADCP,ioos:station:wmo:42395:2,2016-10-01T17:00:00Z,26.4040,-90.7920,3.0,8.8,55.0,11.1, 
ADCP,ioos:station:wmo:42395:2,2016-10-01T17:20:00Z,26.4040,-90.7920,3.0,9.2,55.0,11.7, 
ADCP,ioos:station:wmo:42395:2,2016-10-01T17:40:00Z,26.4040,-90.7920,3.0,9.1,58.0,11.3, 
ADCP,ioos:station:wmo:42395:2,2016-10-01T18:00:00Z,26.4040,-90.7920,3.0,9.3,58.0,11.2, 
ADCP,ioos:station:wmo:42395:2,2016-10-01T18:20:00Z,26.4040,-90.7920,3.0,10.1,62.0,12.2, 
ADCP,ioos:station:wmo:42395:2,2016-10-01T18:40:00Z,26.4040,-90.7920,3.0,9.7,64.0,11.9, 
ADCP,ioos:station:wmo:42395:2,2016-10-01T19:00:00Z,26.4040,-90.7920,3.0,9.5,60.0,11.4, 
ADCP,ioos:station:wmo:42395:2,2016-10-01T19:20:00Z,26.4040,-90.7920,3.0,9.2,56.0,11.4, 
ADCP,ioos:station:wmo:42395:2,2016-10-01T19:40:00Z,26.4040,-90.7920,3.0,8.2,60.0,9.6, 
ADCP,ioos:station:wmo:42395:2,2016-10-01T20:00:00Z,26.4040,-90.7920,3.0,7.5,51.0,9.4, 
ADCP,ioos:station:wmo:42395:2,2016-10-01T20:20:00Z,26.4040,-90.7920,3.0,6.5,62.0,8.5, 
ADCP,ioos:station:wmo:42395:2,2016-10-01T20:40:00Z,26.4040,-90.7920,3.0,6.0,64.0,8.1, 
ADCP,ioos:station:wmo:42395:2,2016-10-01T21:00:00Z,26.4040,-90.7920,3.0,5.4,63.0,7.2, 
ADCP,ioos:station:wmo:42395:2,2016-10-01T21:20:00Z,26.4040,-90.7920,3.0,6.3,64.0,8.3, 
ADCP,ioos:station:wmo:42395:2,2016-10-01T21:40:00Z,26.4040,-90.7920,3.0,7.7,58.0,9.5, 
ADCP,ioos:station:wmo:42395:2,2016-10-01T22:00:00Z,26.4040,-90.7920,3.0,8.8,51.0,11.2, 
ADCP,ioos:station:wmo:42395:2,2016-10-01T22:20:00Z,26.4040,-90.7920,3.0,9.0,57.0,11.2, 
ADCP,ioos:station:wmo:42395:2,2016-10-01T22:40:00Z,26.4040,-90.7920,3.0,9.2,59.0,11.5, 
ADCP,ioos:station:wmo:42395:2,2016-10-01T23:00:00Z,26.4040,-90.7920,3.0,8.6,70.0,10.6, 
ADCP,ioos:station:wmo:42395:2,2016-10-01T23:20:00Z,26.4040,-90.7920,3.0,9.0,75.0,11.5, 
ADCP,ioos:station:wmo:42395:2,2016-10-01T23:40:00Z,26.4040,-90.7920,3.0,9.1,75.0,11.2, 
ADCP,ioos:station:wmo:42395:2,2016-10-02T00:00:00Z,26.4040,-90.7920,3.0,8.6,71.0,11.3, 
ADCP,ioos:station:wmo:42395:2,2016-10-02T00:20:00Z,26.4040,-90.7920,3.0,9.0,61.0,11.6, 
ADCP,ioos:station:wmo:42395:2,2016-10-02T00:40:00Z,26.4040,-90.7920,3.0,8.6,57.0,10.7, 
ADCP,ioos:station:wmo:42395:2,2016-10-02T01:00:00Z,26.4040,-90.7920,3.0,7.6,68.0,9.6, 
ADCP,ioos:station:wmo:42395:2,2016-10-02T01:20:00Z,26.4040,-90.7920,3.0,8.4,68.0,11.1, 
ADCP,ioos:station:wmo:42395:2,2016-10-02T01:40:00Z,26.4040,-90.7920,3.0,8.2,75.0,10.7, 
ADCP,ioos:station:wmo:42395:2,2016-10-02T02:00:00Z,26.4040,-90.7920,3.0,7.7,89.0,10.1, 
ADCP,ioos:station:wmo:42395:2,2016-10-02T02:20:00Z,26.4040,-90.7920,3.0,7.9,83.0,10.1, 
ADCP,ioos:station:wmo:42395:2,2016-10-02T02:40:00Z,26.4040,-90.7920,3.0,8.0,71.0,12.2, 
ADCP,ioos:station:wmo:42395:2,2016-10-02T03:00:00Z,26.4040,-90.7920,3.0,9.3,68.0,12.4, 
ADCP,ioos:station:wmo:42395:2,2016-10-02T03:20:00Z,26.4040,-90.7920,3.0,9.0,70.0,11.8, 
ADCP,ioos:station:wmo:42395:2,2016-10-02T03:40:00Z,26.4040,-90.7920,3.0,9.3,67.0,11.7, 
ADCP,ioos:station:wmo:42395:2,2016-10-02T04:00:00Z,26.4040,-90.7920,3.0,11.5,68.0,14.4, 
ADCP,ioos:station:wmo:42395:2,2016-10-02T04:20:00Z,26.4040,-90.7920,3.0,10.6,63.0,13.4, 
ADCP,ioos:station:wmo:42395:2,2016-10-02T04:40:00Z,26.4040,-90.7920,3.0,10.9,69.0,13.9, 
ADCP,ioos:station:wmo:42395:2,2016-10-02T05:00:00Z,26.4040,-90.7920,3.0,10.3,75.0,13.0, 
ADCP,ioos:station:wmo:42395:2,2016-10-02T05:20:00Z,26.4040,-90.7920,3.0,10.9,68.0,14.7, 
ADCP,ioos:station:wmo:42395:2,2016-10-02T05:40:00Z,26.4040,-90.7920,3.0,10.7,77.0,14.3, 
ADCP,ioos:station:wmo:42395:2,2016-10-02T06:00:00Z,26.4040,-90.7920,3.0,10.2,81.0,12.6, 
ADCP,ioos:station:wmo:42395:2,2016-10-02T06:20:00Z,26.4040,-90.7920,3.0,10.4,81.0,13.4, 
ADCP,ioos:station:wmo:42395:2,2016-10-02T06:40:00Z,26.4040,-90.7920,3.0,10.0,83.0,12.6, 
ADCP,ioos:station:wmo:42395:2,2016-10-02T07:20:00Z,26.4040,-90.7920,3.0,9.4,77.0,11.9, 
ADCP,ioos:station:wmo:42395:2,2016-10-02T07:40:00Z,26.4040,-90.7920,3.0,10.0,86.0,12.2, 
ADCP,ioos:station:wmo:42395:2,2016-10-02T08:00:00Z,26.4040,-90.7920,3.0,9.3,90.0,12.6, 
ADCP,ioos:station:wmo:42395:2,2016-10-02T08:20:00Z,26.4040,-90.7920,3.0,9.2,91.0,11.6, 
ADCP,ioos:station:wmo:42395:2,2016-10-02T08:40:00Z,26.4040,-90.7920,3.0,8.4,86.0,10.9, 
ADCP,ioos:station:wmo:42395:2,2016-10-02T09:00:00Z,26.4040,-90.7920,3.0,8.3,86.0,10.4, 
ADCP,ioos:station:wmo:42395:2,2016-10-02T09:20:00Z,26.4040,-90.7920,3.0,7.7,82.0,10.4, 
ADCP,ioos:station:wmo:42395:2,2016-10-02T09:40:00Z,26.4040,-90.7920,3.0,8.1,93.0,10.6, 
ADCP,ioos:station:wmo:42395:2,2016-10-02T10:00:00Z,26.4040,-90.7920,3.0,8.7,79.0,10.7, 
ADCP,ioos:station:wmo:42395:2,2016-10-02T10:20:00Z,26.4040,-90.7920,3.0,7.4,85.0,9.6, 
ADCP,ioos:station:wmo:42395:2,2016-10-02T10:40:00Z,26.4040,-90.7920,3.0,7.4,75.0,9.8, 
ADCP,ioos:station:wmo:42395:2,2016-10-02T11:00:00Z,26.4040,-90.7920,3.0,7.1,78.0,8.8, 
ADCP,ioos:station:wmo:42395:2,2016-10-02T11:20:00Z,26.4040,-90.7920,3.0,6.3,81.0,8.6, 
ADCP,ioos:station:wmo:42395:2,2016-10-02T11:40:00Z,26.4040,-90.7920,3.0,5.2,87.0,7.1, 
ADCP,ioos:station:wmo:42395:2,2016-10-02T12:00:00Z,26.4040,-90.7920,3.0,5.5,70.0,10.1, 
ADCP,ioos:station:wmo:42395:2,2016-10-02T12:20:00Z,26.4040,-90.7920,3.0,8.3,70.0,11.2, 
ADCP,ioos:station:wmo:42395:2,2016-10-02T12:40:00Z,26.4040,-90.7920,3.0,7.6,89.0,11.1, 
ADCP,ioos:station:wmo:42395:2,2016-10-02T13:00:00Z,26.4040,-90.7920,3.0,5.7,56.0,8.6, 
ADCP,ioos:station:wmo:42395:2,2016-10-02T13:20:00Z,26.4040,-90.7920,3.0,7.4,55.0,9.2, 
ADCP,ioos:station:wmo:42395:2,2016-10-02T13:40:00Z,26.4040,-90.7920,3.0,7.5,65.0,9.2, 
ADCP,ioos:station:wmo:42395:2,2016-10-02T14:00:00Z,26.4040,-90.7920,3.0,8.4,50.0,10.4, 
ADCP,ioos:station:wmo:42395:2,2016-10-02T14:20:00Z,26.4040,-90.7920,3.0,7.9,73.0,10.6, 
ADCP,ioos:station:wmo:42395:2,2016-10-02T14:40:00Z,26.4040,-90.7920,3.0,6.3,82.0,10.0, 
ADCP,ioos:station:wmo:42395:2,2016-10-02T15:00:00Z,26.4040,-90.7920,3.0,9.0,240.0,11.9, 
ADCP,ioos:station:wmo:42395:2,2016-10-02T15:20:00Z,26.4040,-90.7920,3.0,7.5,308.0,10.2, 
ADCP,ioos:station:wmo:42395:2,2016-10-02T15:40:00Z,26.4040,-90.7920,3.0,7.0,322.0,10.3, 
ADCP,ioos:station:wmo:42395:2,2016-10-02T16:00:00Z,26.4040,-90.7920,3.0,6.1,347.0,8.5, 
ADCP,ioos:station:wmo:42395:2,2016-10-02T16:20:00Z,26.4040,-90.7920,3.0,4.5,23.0,6.2, 
ADCP,ioos:station:wmo:42395:2,2016-10-02T16:40:00Z,26.4040,-90.7920,3.0,6.1,44.0,9.5, 
ADCP,ioos:station:wmo:42395:2,2016-10-02T17:00:00Z,26.4040,-90.7920,3.0,8.8,49.0,10.2, 
ADCP,ioos:station:wmo:42395:2,2016-10-02T17:20:00Z,26.4040,-90.7920,3.0,9.5,60.0,12.6, 
ADCP,ioos:station:wmo:42395:2,2016-10-02T17:40:00Z,26.4040,-90.7920,3.0,9.2,68.0,11.2, 
ADCP,ioos:station:wmo:42395:2,2016-10-02T18:00:00Z,26.4040,-90.7920,3.0,8.0,70.0,9.8, 
ADCP,ioos:station:wmo:42395:2,2016-10-02T18:20:00Z,26.4040,-90.7920,3.0,6.5,82.0,8.2, 
ADCP,ioos:station:wmo:42395:2,2016-10-02T18:40:00Z,26.4040,-90.7920,3.0,6.3,82.0,8.2, 
ADCP,ioos:station:wmo:42395:2,2016-10-02T19:00:00Z,26.4040,-90.7920,3.0,7.4,77.0,9.0, 
ADCP,ioos:station:wmo:42395:2,2016-10-02T19:20:00Z,26.4040,-90.7920,3.0,6.3,49.0,8.3, 
ADCP,ioos:station:wmo:42395:2,2016-10-02T19:40:00Z,26.4040,-90.7920,3.0,6.6,44.0,8.1, 
ADCP,ioos:station:wmo:42395:2,2016-10-02T20:00:00Z,26.4040,-90.7920,3.0,7.2,52.0,9.2, 
ADCP,ioos:station:wmo:42395:2,2016-10-02T20:20:00Z,26.4040,-90.7920,3.0,7.7,50.0,9.5, 
ADCP,ioos:station:wmo:42395:2,2016-10-02T20:40:00Z,26.4040,-90.7920,3.0,7.1,52.0,9.0, 
ADCP,ioos:station:wmo:42395:2,2016-10-02T21:00:00Z,26.4040,-90.7920,3.0,7.2,46.0,9.1, 
ADCP,ioos:station:wmo:42395:2,2016-10-02T21:20:00Z,26.4040,-90.7920,3.0,7.6,56.0,9.3, 
ADCP,ioos:station:wmo:42395:2,2016-10-02T21:40:00Z,26.4040,-90.7920,3.0,7.2,62.0,9.1, 
ADCP,ioos:station:wmo:42395:2,2016-10-02T22:00:00Z,26.4040,-90.7920,3.0,9.6,62.0,11.8, 
ADCP,ioos:station:wmo:42395:2,2016-10-02T22:20:00Z,26.4040,-90.7920,3.0,8.6,86.0,11.2, 
ADCP,ioos:station:wmo:42395:2,2016-10-02T22:40:00Z,26.4040,-90.7920,3.0,8.1,87.0,10.5, 
ADCP,ioos:station:wmo:42395:2,2016-10-02T23:00:00Z,26.4040,-90.7920,3.0,7.7,90.0,10.0, 
ADCP,ioos:station:wmo:42395:2,2016-10-02T23:20:00Z,26.4040,-90.7920,3.0,6.9,101.0,8.4, 
ADCP,ioos:station:wmo:42395:2,2016-10-02T23:40:00Z,26.4040,-90.7920,3.0,6.2,103.0,7.7, 
ADCP,ioos:station:wmo:42395:2,2016-10-03T00:00:00Z,26.4040,-90.7920,3.0,5.2,91.0,6.9, 
ADCP,ioos:station:wmo:42395:2,2016-10-03T00:20:00Z,26.4040,-90.7920,3.0,5.2,96.0,6.9, 
ADCP,ioos:station:wmo:42395:2,2016-10-03T00:40:00Z,26.4040,-90.7920,3.0,6.2,88.0,8.7, 
ADCP,ioos:station:wmo:42395:2,2016-10-03T01:00:00Z,26.4040,-90.7920,3.0,6.6,81.0,8.1, 
ADCP,ioos:station:wmo:42395:2,2016-10-03T01:20:00Z,26.4040,-90.7920,3.0,5.7,83.0,7.6, 
ADCP,ioos:station:wmo:42395:2,2016-10-03T01:40:00Z,26.4040,-90.7920,3.0,5.3,82.0,7.0, 
ADCP,ioos:station:wmo:42395:2,2016-10-03T02:00:00Z,26.4040,-90.7920,3.0,5.9,90.0,7.1, 
ADCP,ioos:station:wmo:42395:2,2016-10-03T02:20:00Z,26.4040,-90.7920,3.0,5.3,87.0,7.0, 
ADCP,ioos:station:wmo:42395:2,2016-10-03T02:40:00Z,26.4040,-90.7920,3.0,4.6,103.0,5.9, 
ADCP,ioos:station:wmo:42395:2,2016-10-03T03:00:00Z,26.4040,-90.7920,3.0,4.1,114.0,5.4, 
ADCP,ioos:station:wmo:42395:2,2016-10-03T03:20:00Z,26.4040,-90.7920,3.0,3.2,126.0,4.5, 
ADCP,ioos:station:wmo:42395:2,2016-10-03T03:40:00Z,26.4040,-90.7920,3.0,3.1,92.0,4.3, 
ADCP,ioos:station:wmo:42395:2,2016-10-03T04:00:00Z,26.4040,-90.7920,3.0,3.1,93.0,4.8, 
ADCP,ioos:station:wmo:42395:2,2016-10-03T04:20:00Z,26.4040,-90.7920,3.0,3.1,102.0,4.5, 
ADCP,ioos:station:wmo:42395:2,2016-10-03T04:40:00Z,26.4040,-90.7920,3.0,7.1,72.0,8.8, 
ADCP,ioos:station:wmo:42395:2,2016-10-03T05:00:00Z,26.4040,-90.7920,3.0,6.7,75.0,8.6, 
ADCP,ioos:station:wmo:42395:2,2016-10-03T05:20:00Z,26.4040,-90.7920,3.0,7.1,82.0,8.8, 
ADCP,ioos:station:wmo:42395:2,2016-10-03T05:40:00Z,26.4040,-90.7920,3.0,7.9,84.0,10.0, 
ADCP,ioos:station:wmo:42395:2,2016-10-03T06:00:00Z,26.4040,-90.7920,3.0,7.1,90.0,9.1, 
ADCP,ioos:station:wmo:42395:2,2016-10-03T06:20:00Z,26.4040,-90.7920,3.0,7.6,91.0,9.5, 
ADCP,ioos:station:wmo:42395:2,2016-10-03T06:40:00Z,26.4040,-90.7920,3.0,6.7,98.0,8.6, 
ADCP,ioos:station:wmo:42395:2,2016-10-03T07:00:00Z,26.4040,-90.7920,3.0,7.0,96.0,9.8, 
ADCP,ioos:station:wmo:42395:2,2016-10-03T07:20:00Z,26.4040,-90.7920,3.0,7.2,96.0,8.8, 
ADCP,ioos:station:wmo:42395:2,2016-10-03T07:40:00Z,26.4040,-90.7920,3.0,6.7,88.0,8.4, 
ADCP,ioos:station:wmo:42395:2,2016-10-03T08:00:00Z,26.4040,-90.7920,3.0,7.1,98.0,9.0, 
ADCP,ioos:station:wmo:42395:2,2016-10-03T08:20:00Z,26.4040,-90.7920,3.0,7.0,106.0,8.7, 
ADCP,ioos:station:wmo:42395:2,2016-10-03T08:40:00Z,26.4040,-90.7920,3.0,5.5,136.0,7.3, 
ADCP,ioos:station:wmo:42395:2,2016-10-03T09:00:00Z,26.4040,-90.7920,3.0,6.0,120.0,7.5, 
ADCP,ioos:station:wmo:42395:2,2016-10-03T09:20:00Z,26.4040,-90.7920,3.0,5.0,110.0,6.4, 
ADCP,ioos:station:wmo:42395:2,2016-10-03T09:40:00Z,26.4040,-90.7920,3.0,5.1,101.0,6.7, 
ADCP,ioos:station:wmo:42395:2,2016-10-03T10:00:00Z,26.4040,-90.7920,3.0,4.5,106.0,6.2, 
ADCP,ioos:station:wmo:42395:2,2016-10-03T10:20:00Z,26.4040,-90.7920,3.0,5.1,110.0,6.3, 
ADCP,ioos:station:wmo:42395:2,2016-10-03T10:40:00Z,26.4040,-90.7920,3.0,5.6,101.0,7.6, 
ADCP,ioos:station:wmo:42395:2,2016-10-03T11:00:00Z,26.4040,-90.7920,3.0,5.4,109.0,7.5, 
ADCP,ioos:station:wmo:42395:2,2016-10-03T11:20:00Z,26.4040,-90.7920,3.0,5.0,110.0,6.6, 
ADCP,ioos:station:wmo:42395:2,2016-10-03T11:40:00Z,26.4040,-90.7920,3.0,5.2,99.0,7.2, 
ADCP,ioos:station:wmo:42395:2,2016-10-03T12:00:00Z,26.4040,-90.7920,3.0,5.1,92.0,6.7, 
ADCP,ioos:station:wmo:42395:2,2016-10-03T12:20:00Z,26.4040,-90.7920,3.0,5.6,86.0,7.3, 
ADCP,ioos:station:wmo:42395:2,2016-10-03T12:40:00Z,26.4040,-90.7920,3.0,5.4,98.0,7.1, 
ADCP,ioos:station:wmo:42395:2,2016-10-03T13:00:00Z,26.4040,-90.7920,3.0,6.1,84.0,7.9, 
ADCP,ioos:station:wmo:42395:2,2016-10-03T13:20:00Z,26.4040,-90.7920,3.0,5.6,93.0,7.3, 
ADCP,ioos:station:wmo:42395:2,2016-10-03T13:40:00Z,26.4040,-90.7920,3.0,5.6,91.0,7.3, 
ADCP,ioos:station:wmo:42395:2,2016-10-03T14:00:00Z,26.4040,-90.7920,3.0,6.2,84.0,7.9, 
ADCP,ioos:station:wmo:42395:2,2016-10-03T14:20:00Z,26.4040,-90.7920,3.0,6.2,80.0,8.4, 
ADCP,ioos:station:wmo:42395:2,2016-10-03T14:40:00Z,26.4040,-90.7920,3.0,5.5,91.0,8.0, 
ADCP,ioos:station:wmo:42395:2,2016-10-03T15:00:00Z,26.4040,-90.7920,3.0,6.0,80.0,7.6, 
ADCP,ioos:station:wmo:42395:2,2016-10-03T15:20:00Z,26.4040,-90.7920,3.0,6.4,98.0,8.4, 
ADCP,ioos:station:wmo:42395:2,2016-10-03T15:40:00Z,26.4040,-90.7920,3.0,7.2,97.0,9.2, 
ADCP,ioos:station:wmo:42395:2,2016-10-03T16:00:00Z,26.4040,-90.7920,3.0,6.3,113.0,8.3, 
ADCP,ioos:station:wmo:42395:2,2016-10-03T16:20:00Z,26.4040,-90.7920,3.0,6.1,108.0,8.0, 
ADCP,ioos:station:wmo:42395:2,2016-10-03T16:40:00Z,26.4040,-90.7920,3.0,6.0,116.0,8.2, 
ADCP,ioos:station:wmo:42395:2,2016-10-03T17:00:00Z,26.4040,-90.7920,3.0,1.9,129.0,4.0, 
ADCP,ioos:station:wmo:42395:2,2016-10-03T17:20:00Z,26.4040,-90.7920,3.0,1.9,160.0,5.2, 
ADCP,ioos:station:wmo:42395:2,2016-10-03T17:40:00Z,26.4040,-90.7920,3.0,1.2,158.0,4.4, 
ADCP,ioos:station:wmo:42395:2,2016-10-03T18:00:00Z,26.4040,-90.7920,3.0,1.0,268.0,3.3, 
ADCP,ioos:station:wmo:42395:2,2016-10-03T18:20:00Z,26.4040,-90.7920,3.0,1.2,266.0,2.9, 
ADCP,ioos:station:wmo:42395:2,2016-10-03T18:40:00Z,26.4040,-90.7920,3.0,1.3,203.0,4.0, 
ADCP,ioos:station:wmo:42395:2,2016-10-03T23:40:00Z,26.4040,-90.7920,3.0,2.4,78.0,5.0, 
ADCP,ioos:station:wmo:42395:2,2016-10-04T00:00:00Z,26.4040,-90.7920,3.0,2.3,73.0,4.1, 
ADCP,ioos:station:wmo:42395:2,2016-10-04T00:20:00Z,26.4040,-90.7920,3.0,2.8,76.0,4.2, 
ADCP,ioos:station:wmo:42395:2,2016-10-04T00:40:00Z,26.4040,-90.7920,3.0,3.1,76.0,4.8, 
ADCP,ioos:station:wmo:42395:2,2016-10-04T01:00:00Z,26.4040,-90.7920,3.0,3.0,79.0,4.5, 
ADCP,ioos:station:wmo:42395:2,2016-10-04T01:20:00Z,26.4040,-90.7920,3.0,3.0,84.0,4.3, 
ADCP,ioos:station:wmo:42395:2,2016-10-04T01:40:00Z,26.4040,-90.7920,3.0,3.0,89.0,5.1, 
ADCP,ioos:station:wmo:42395:2,2016-10-04T02:00:00Z,26.4040,-90.7920,3.0,3.2,98.0,5.0, 
ADCP,ioos:station:wmo:42395:2,2016-10-04T02:20:00Z,26.4040,-90.7920,3.0,3.4,90.0,5.5, 
ADCP,ioos:station:wmo:42395:2,2016-10-04T02:40:00Z,26.4040,-90.7920,3.0,3.2,93.0,5.5, 
ADCP,ioos:station:wmo:42395:2,2016-10-04T03:00:00Z,26.4040,-90.7920,3.0,2.9,93.0,4.8, 
ADCP,ioos:station:wmo:42395:2,2016-10-04T03:20:00Z,26.4040,-90.7920,3.0,2.3,94.0,3.8, 
ADCP,ioos:station:wmo:42395:2,2016-10-04T03:40:00Z,26.4040,-90.7920,3.0,4.8,69.0,6.5, 
ADCP,ioos:station:wmo:42395:2,2016-10-04T04:00:00Z,26.4040,-90.7920,3.0,4.2,73.0,6.9, 
ADCP,ioos:station:wmo:42395:2,2016-10-04T04:20:00Z,26.4040,-90.7920,3.0,4.5,75.0,7.2, 
ADCP,ioos:station:wmo:42395:2,2016-10-04T04:40:00Z,26.4040,-90.7920,3.0,3.8,75.0,6.3, 
ADCP,ioos:station:wmo:42395:2,2016-10-04T05:00:00Z,26.4040,-90.7920,3.0,3.5,78.0,6.1, 
ADCP,ioos:station:wmo:42395:2,2016-10-04T05:20:00Z,26.4040,-90.7920,3.0,3.6,77.0,7.0, 
ADCP,ioos:station:wmo:42395:2,2016-10-04T05:40:00Z,26.4040,-90.7920,3.0,3.6,79.0,6.0, 
ADCP,ioos:station:wmo:42395:2,2016-10-04T06:00:00Z,26.4040,-90.7920,3.0,3.6,77.0,5.6, 
ADCP,ioos:station:wmo:42395:2,2016-10-04T06:20:00Z,26.4040,-90.7920,3.0,3.4,79.0,5.5, 
ADCP,ioos:station:wmo:42395:2,2016-10-04T06:40:00Z,26.4040,-90.7920,3.0,3.4,81.0,5.6, 
ADCP,ioos:station:wmo:42395:2,2016-10-04T07:00:00Z,26.4040,-90.7920,3.0,3.6,97.0,6.3, 
ADCP,ioos:station:wmo:42395:2,2016-10-04T07:20:00Z,26.4040,-90.7920,3.0,4.2,103.0,9.0, 
ADCP,ioos:station:wmo:42395:2,2016-10-04T07:40:00Z,26.4040,-90.7920,3.0,4.9,129.0,7.4, 
ADCP,ioos:station:wmo:42395:2,2016-10-04T08:00:00Z,26.4040,-90.7920,3.0,4.5,120.0,8.2, 
ADCP,ioos:station:wmo:42395:2,2016-10-04T08:20:00Z,26.4040,-90.7920,3.0,4.3,127.0,7.1, 
ADCP,ioos:station:wmo:42395:2,2016-10-04T08:40:00Z,26.4040,-90.7920,3.0,3.6,113.0,5.6, 
ADCP,ioos:station:wmo:42395:2,2016-10-04T09:00:00Z,26.4040,-90.7920,3.0,4.1,126.0,6.3, 
ADCP,ioos:station:wmo:42395:2,2016-10-04T09:20:00Z,26.4040,-90.7920,3.0,4.2,122.0,6.9, 
ADCP,ioos:station:wmo:42395:2,2016-10-04T09:40:00Z,26.4040,-90.7920,3.0,3.9,115.0,6.5, 
ADCP,ioos:station:wmo:42395:2,2016-10-04T10:00:00Z,26.4040,-90.7920,3.0,4.3,124.0,6.7, 
ADCP,ioos:station:wmo:42395:2,2016-10-04T10:20:00Z,26.4040,-90.7920,3.0,2.5,83.0,4.8, 
ADCP,ioos:station:wmo:42395:2,2016-10-04T10:40:00Z,26.4040,-90.7920,3.0,4.4,129.0,9.4, 
ADCP,ioos:station:wmo:42395:2,2016-10-04T11:00:00Z,26.4040,-90.7920,3.0,4.1,121.0,6.2, 
ADCP,ioos:station:wmo:42395:2,2016-10-04T11:20:00Z,26.4040,-90.7920,3.0,3.6,114.0,5.9, 
ADCP,ioos:station:wmo:42395:2,2016-10-04T11:40:00Z,26.4040,-90.7920,3.0,3.9,118.0,6.0, 
ADCP,ioos:station:wmo:42395:2,2016-10-04T12:00:00Z,26.4040,-90.7920,3.0,3.9,116.0,6.1, 
ADCP,ioos:station:wmo:42395:2,2016-10-04T12:20:00Z,26.4040,-90.7920,3.0,4.1,112.0,6.6, 
ADCP,ioos:station:wmo:42395:2,2016-10-04T12:40:00Z,26.4040,-90.7920,3.0,4.1,113.0,6.4, 
ADCP,ioos:station:wmo:42395:2,2016-10-04T13:00:00Z,26.4040,-90.7920,3.0,4.3,113.0,6.9, 
ADCP,ioos:station:wmo:42395:2,2016-10-04T13:20:00Z,26.4040,-90.7920,3.0,4.2,114.0,6.0, 
ADCP,ioos:station:wmo:42395:2,2016-10-05T16:40:00Z,26.4040,-90.7920,3.0,4.2,68.0,6.1, 
ADCP,ioos:station:wmo:42395:2,2016-10-05T17:00:00Z,26.4040,-90.7920,3.0,4.8,59.0,6.6, 
ADCP,ioos:station:wmo:42395:2,2016-10-05T17:20:00Z,26.4040,-90.7920,3.0,4.6,71.0,6.3, 
ADCP,ioos:station:wmo:42395:2,2016-10-05T17:40:00Z,26.4040,-90.7920,3.0,4.4,65.0,5.9, 
ADCP,ioos:station:wmo:42395:2,2016-10-05T18:00:00Z,26.4040,-90.7920,3.0,4.1,50.0,5.2, 
ADCP,ioos:station:wmo:42395:2,2016-10-05T18:20:00Z,26.4040,-90.7920,3.0,4.3,57.0,5.6, 
ADCP,ioos:station:wmo:42395:2,2016-10-05T18:40:00Z,26.4040,-90.7920,3.0,4.4,55.0,6.2, 
ADCP,ioos:station:wmo:42395:2,2016-10-05T19:00:00Z,26.4040,-90.7920,3.0,4.2,46.0,5.6, 
ADCP,ioos:station:wmo:42395:2,2016-10-05T19:20:00Z,26.4040,-90.7920,3.0,4.9,47.0,6.7, 
ADCP,ioos:station:wmo:42395:2,2016-10-05T19:40:00Z,26.4040,-90.7920,3.0,4.8,47.0,6.3, 
ADCP,ioos:station:wmo:42395:2,2016-10-05T20:00:00Z,26.4040,-90.7920,3.0,5.4,41.0,7.1, 
ADCP,ioos:station:wmo:42395:2,2016-10-05T20:20:00Z,26.4040,-90.7920,3.0,5.5,37.0,7.2, 
ADCP,ioos:station:wmo:42395:2,2016-10-05T20:40:00Z,26.4040,-90.7920,3.0,5.3,46.0,6.9, 
ADCP,ioos:station:wmo:42395:2,2016-10-05T21:00:00Z,26.4040,-90.7920,3.0,4.9,49.0,6.5, 
ADCP,ioos:station:wmo:42395:2,2016-10-05T21:20:00Z,26.4040,-90.7920,3.0,5.1,43.0,7.1, 
ADCP,ioos:station:wmo:42395:2,2016-10-05T21:40:00Z,26.4040,-90.7920,3.0,5.1,44.0,6.4, 
ADCP,ioos:station:wmo:42395:2,2016-10-05T22:00:00Z,26.4040,-90.7920,3.0,5.7,34.0,6.9, 
ADCP,ioos:station:wmo:42395:2,2016-10-05T22:20:00Z,26.4040,-90.7920,3.0,5.2,32.0,7.1, 
ADCP,ioos:station:wmo:42395:2,2016-10-05T22:40:00Z,26.4040,-90.7920,3.0,5.9,39.0,7.5, 
ADCP,ioos:station:wmo:42395:2,2016-10-05T23:00:00Z,26.4040,-90.7920,3.0,6.7,44.0,8.4, 
ADCP,ioos:station:wmo:42395:2,2016-10-05T23:20:00Z,26.4040,-90.7920,3.0,7.0,45.0,8.7, 
ADCP,ioos:station:wmo:42395:2,2016-10-05T23:40:00Z,26.4040,-90.7920,3.0,6.7,44.0,9.0, 
ADCP,ioos:station:wmo:42395:2,2016-10-06T00:00:00Z,26.4040,-90.7920,3.0,7.3,45.0,9.3, 
ADCP,ioos:station:wmo:42395:2,2016-10-06T00:20:00Z,26.4040,-90.7920,3.0,7.5,42.0,9.6, 
ADCP,ioos:station:wmo:42395:2,2016-10-06T00:40:00Z,26.4040,-90.7920,3.0,7.5,51.0,9.5, 
ADCP,ioos:station:wmo:42395:2,2016-10-06T01:00:00Z,26.4040,-90.7920,3.0,7.5,49.0,9.5, 
ADCP,ioos:station:wmo:42395:2,2016-10-06T01:20:00Z,26.4040,-90.7920,3.0,8.4,46.0,10.4, 
ADCP,ioos:station:wmo:42395:2,2016-10-06T01:40:00Z,26.4040,-90.7920,3.0,7.7,54.0,9.6, 
ADCP,ioos:station:wmo:42395:2,2016-10-06T02:00:00Z,26.4040,-90.7920,3.0,8.2,55.0,10.7, 
ADCP,ioos:station:wmo:42395:2,2016-10-06T02:20:00Z,26.4040,-90.7920,3.0,8.5,54.0,10.4, 
ADCP,ioos:station:wmo:42395:2,2016-10-06T02:40:00Z,26.4040,-90.7920,3.0,8.1,57.0,10.4, 